CZ-3B R/B, 43649

Orbit data source: Space-Track

CZ-3B R/B, 43649 is space debris in HEO originally from a launch on Mon, 15 Oct 2018 UTC launched from the Xichang Space Center, China (XSC). Debris objects in space refer to the collection of defunct objects orbiting the Earth. Examples of debris include non-operational satellites, rocket bodies, and fragments generated from explosions, collisions, or faulty payload assembly.

Loading next visibility...
Identifier
43649, 2018-078C
Orbit
HEO
Country
Flag of CNCN / PRC
Related business
Manufacturer
CALT
Mission
Spacecraft
Bus & Motor
CZ-3A STAGE 3, Unknown motor
Mass
~2,800 kg wet, ~2,800 kg dry
Launch date (UTC)
2018-10-15 (7 years ago)
Launch vehicle
Unknown
Launch site
Xichang Space Center, China (XSC)
Object type
Payload
Rocket body
Debris
Shape & HBR
Cyl + 1 Nozzle, 6.2 m
Radar Cross Section
32.704 m², Large (>1 m²)

Expand to show TLE details & history
Last TLE update: 20 hours ago

TLE from 20 hours ago
0 CZ-3B R/B
1 43649U 18078C   26071.60365968  .00000295  00000-0  36066-3 0  9999
2 43649  54.9739 288.4887 5503007 328.3574   7.9993  4.64582294124729
Epoch: 2026-03-12T14:29Z
TLE epoch observation values (Epoch: 2026-03-12T14:29:16.196Z)
Latitude
-0.00005°
Longitude
-99.06504°
Altitude
832.502 km
Speed
9.182 km/s
True Right ascension
19h 14m 00s
True Declination
0° 00' 00"
Sunlit
Object was in daylight at epoch
Visualization orbit readout
Latitude
Unknown
Longitude
Unknown
Altitude
Unknown
Speed
Unknown
Apparent Right ascension
Unknown
Apparent Declination
Unknown
Sunlit
N/A
Visualization observer readout
Local Sidereal Time
15:05:18
Azimuth
Unknown
Elevation
Unknown
Doppler factor
Unknown
Orbital elements
Apogee altitude
17,142.123 km
Perigee altitude
444.439 km
Semi-major axis
15,171.418 km
Eccentricity
0.5503
Inclination
54.9739°
RAAN
288.4887°
Arg. of periapsis
328.3574°
True anomaly
31.82539°
Mean anomaly
7.9993°
Eccentric anomaly
17.45901°
Mean motion
1.16146 °/min
Orbital period
309.95 mins
BSTAR
0.00036066
Loading maneuver chart data...
Computing Atmospheric mass density...
Loading historical data...
Loading historical data...
Loading historical data...
Loading historical data...
Loading historical data...
Loading historical data...
Loading historical data...
Other satellites on launch #78 in the year 2018 (2018-10-15 UTC)

Documentation

Showing up to 5 results
|